OBJECT K, 63991

Orbit data source: Space-Track

You're viewing an Uncataloged Satellite

Recently launched and/or uncataloged satellites may have evolving metadata. Metadata may include but not limited to: Owner, Maufacturer, Bus, Motor, and Mission.

OBJECT K, 63991 is a Chinese satellite in SSO that was launched on Wed, 14 May 2025 UTC via a CHANG ZHENG 2D launch vehicle from the Jiuquan Satellite Launch Center, China (JSC). Unknown objects in Earth's orbit typically refer to objects detected orbiting the Earth but have not yet been identified or cataloged. These objects could be anything from previously untracked satellites, spent rocket stages, debris from satellite collisions, or even natural meteoroids temporarily captured by Earth's gravity.

Loading next visibility...
Identifier
63991, 2025-100K
Orbit
SSO
Country
Flag of CNCN / PRC
Related business
None
Manufacturer
Unknown
Mission
Operational Commercial Technology
Bus & Motor
Unknown
Mass
Unknown
Launch date (UTC)
2025-05-14 (7 months ago)
Launch vehicle
CHANG ZHENG 2D
Launch site
Jiuquan Satellite Launch Center, China (JSC)
Object type
Unknown
Shape & HBR
Box + 2 Pan, 1.0 m
Radar Cross Section
0.135 m², Medium (>0.1 m² and < 1m²)

Expand to show TLE details & history
Last TLE update: 21 hours ago

TLE from 21 hours ago
0 OBJECT K
1 63991U 25100K   25340.82185055  .00021392  00000-0  97999-3 0  9997
2 63991  97.3867  52.8317 0010465 271.2180  88.7856 15.20450466 31394
Epoch: 2025-12-06T19:43Z
TLE epoch observation values (Epoch: 2025-12-06T19:43:27.887Z)
Latitude
-0.00007°
Longitude
41.12143°
Altitude
507.427 km
Speed
7.61 km/s
True Right ascension
03h 31m 19s
True Declination
0° 00' 00"
Sunlit
Object was in full shadow at epoch
Visualization orbit readout
Latitude
Unknown
Longitude
Unknown
Altitude
Unknown
Speed
Unknown
Apparent Right ascension
Unknown
Apparent Declination
Unknown
Sunlit
N/A
Visualization observer readout
Local Sidereal Time
14:26:12
Azimuth
Unknown
Elevation
Unknown
Doppler factor
Unknown
Orbital elements
Apogee altitude
508.645 km
Perigee altitude
494.246 km
Semi-major axis
6,879.582 km
Eccentricity
0.00105
Inclination
97.3867°
RAAN
52.8317°
Arg. of periapsis
271.218°
True anomaly
88.9055°
Mean anomaly
88.7856°
Eccentric anomaly
88.84555°
Mean motion
3.80365 °/min
Orbital period
94.65 mins
BSTAR
0.00097999
Loading maneuver chart data...
Computing Atmospheric mass density...
Loading historical data...
Loading historical data...
Loading historical data...
Loading historical data...
Loading historical data...
Loading historical data...
Loading historical data...

Documentation

Showing up to 5 results
|